Tracking 31027 objects as of 19-Jul-2025
HD Live streaming from Space Station
objects crossing your sky now

CUTE-LASP

Track CUTE-LASP now!
10-day predictions
CUTE-LASP is classified as:


NORAD ID: 49263
Int'l Code: 2021-088D
Perigee: 422.1 km
Apogee: 434.2 km
Inclination: 97.4 °
Period: 93.0 minutes
Semi major axis: 6799 km
RCS: Unknown
Launch date: September 27, 2021
Source: United States (US)
Launch site: AIR FORCE WESTERN TEST RANGE (AFWTR)

Uplink (MHz):
Downlink (MHz): 437.250/2402.000
Beacon (MHz):
Mode: 9k6*/19k2GMSK 1MbpsBPSK
Call sign: CUTE
Status: Active

Your satellite tracking list
IRIDIUM 106
Track 1 satellite(s)




NASA's NSSDC Master Catalog

Two Line Element Set (TLE):
1 49263U 21088D   25199.79938309  .00035946  00000-0  67375-3 0  9995
2 49263  97.4494 277.2267 0008889 100.6003 259.6249 15.48538243210495
Source of the keplerian elements: AMSAT